星链-31303 (STARLINK-31303 )

导读 | 豆包AI

STARLINK-31303是美国太空探索技术公司星链互联网卫星星座的一员,于2024年3月16日发射,星链项目旨在为全球提供高速低延迟宽带互联网服务,该卫星入轨后承担地面网络覆盖任务,是星链低轨星座扩容的组成部分,进一步拓展了星座的全球服务能力。

基本信息
目录编号:
59239
目录名称:
STARLINK-31303
国际标识:
2024-049J
轨道中心:
EARTH
卫星名称:
星链-31303
卫星全名:
星链-31303 (STARLINK-31303 )
卫星状态:
在轨 (已飞行775 天)
发射日期:
2024-03-16 UTC
国别 :
美国 (US)
星等 :
--
轨道信息
数据来源 国际轨道数据
星历时间: 2026-04-30T21:26:18+0800
9小时前
查看轨道信息
半长轴: 6861.15km
偏心率: 0.0001193
轨道倾角: 42.998°
近地点辐角 258.436°
升交点赤经 199.751°
平近点角 101.636°
近地点: 482.194km
远地点: 483.832km
周期: 94.266分钟
每日圈数: 15.275922
详细信息
固有亮度:
5
最大亮度:
0.3
卫星平台:
Starlink v2.0 mini
覆盖范围:
全球
运营商:
太空探索技术公司
运营商所在国:
美国
制造商(研发单位):
太空探索技术公司
制造商所在国:
美国
使用方式:
暂无
卫星简介
星链(Starlink)计划是由太空探索技术公司(SpaceX)提出的一个巨型低轨卫星互联网星座项目,计划在2019年至2024年间在太空搭建由约1.2万颗卫星组成的“星链”网络,其中1584颗将部署在地球上空550千米处的近地轨道,并从2020年开始工作。该卫星仍在工作。
2D轨道图
3D轨道图
轨道高度分析图
轨道倾角分析图
轨道综合分析图
查看轨道综合分析图